This is the latest recevied weather packets stored in our database for station/object DF5HRN-13. If no packets are shown the sender has not sent any weather packets the latest 10 day(s).
| Time | Temp. | Humidity | Pressure | Rain* | Wind** | Luminosity | Snow |
|---|---|---|---|---|---|---|---|
| 1777447805 | 12.22° C | 45% | 1032 hPa | - | - | - | - |
| 1777446905 | 11.67° C | 45% | 1032 hPa | - | - | - | - |
| 1777446005 | 11.11° C | 45% | 1032 hPa | - | - | - | - |
| 1777445106 | 10.56° C | 45% | 1032 hPa | - | - | - | - |
| 1777444205 | 10° C | 45% | 1032 hPa | - | - | - | - |
| 1777443305 | 9.44° C | 45% | 1031 hPa | - | - | - | - |
| 1777442405 | 8.89° C | 44% | 1031 hPa | - | - | - | - |
| 1777441505 | 8.33° C | 44% | 1031 hPa | - | - | - | - |
| 1777440605 | 7.78° C | 42% | 1031 hPa | - | - | - | - |
| 1777439705 | 7.22° C | 42% | 1031 hPa | - | - | - | - |
| 1777438805 | 6.67° C | 43% | 1031 hPa | - | - | - | - |
| 1777437905 | 6.67° C | 43% | 1031 hPa | - | - | - | - |
| 1777437005 | 6.67° C | 41% | 1031 hPa | - | - | - | - |
| 1777436105 | 6.11° C | 38% | 1030 hPa | - | - | - | - |
| 1777435205 | 5° C | 50% | 1030 hPa | - | - | - | - |
| 1777434305 | 6.11° C | 50% | 1030 hPa | - | - | - | - |
| 1777433405 | 6.11° C | 50% | 1030 hPa | - | - | - | - |
| 1777432505 | 6.11° C | 50% | 1030 hPa | - | - | - | - |
| 1777431605 | 6.11° C | 50% | 1030 hPa | - | - | - | - |
| 1777430705 | 6.67° C | 50% | 1030 hPa | - | - | - | - |
| 1777429805 | 6.67° C | 50% | 1030 hPa | - | - | - | - |
| 1777428905 | 6.67° C | 51% | 1030 hPa | - | - | - | - |
| 1777428005 | 6.67° C | 51% | 1030 hPa | - | - | - | - |
| 1777427105 | 7.22° C | 51% | 1030 hPa | - | - | - | - |
| 1777426205 | 7.78° C | 51% | 1030 hPa | - | - | - | - |
* Rain since midnight (hover to see other rain measurements)
** Current wind speed in m/s (hover to see current wind gust speed)